Location: Unspecified
(43.4680°N, 87.1740°E)
Time: 17:40:31
(UTC+00:00)

ISS - Pass Details

Date: 02 October 2021
Orbit: 417 x 423 km, 51.6° (Epoch: 25 October)

Event Time Altitude Azimuth Distance (km) Brightness Sun altitude
Rises 14:28:48 0° 295° (WNW) 2,366 1.3 -28.8°
Reaches altitude 10° 14:31:03 10° 284° (WNW) 1,500 -0.1 -29.2°
Enters shadow 14:31:55 16° 275° (W) 1,207 -0.7 -29.3°
